Thurmont, MD

6:38 PM EDT on May 25, 2017 (GMT -0400)
Thurmont

Weather History for KRSP - August, 2013

Change the Weather History Date:

Monday, August 5, 2013

  Actual Average (KHGR) Record (KHGR)
Temperature  
Mean Temperature 64 °F -  
Max Temperature 73 °F 82 °F 92 °F (2005)
Min Temperature 55 °F 63 °F 57 °F (1997)
Degree Days  
Heating Degree Days 2    
Growing Degree Days 14 (Base 50)    
Moisture  
Dew Point 50 °F    
Average Humidity 62    
Maximum Humidity 77    
Minimum Humidity 45    
Precipitation  
Precipitation 0.01 in - - ()
Sea Level Pressure  
Sea Level Pressure 30.11 in    
Wind  
Wind Speed 4 mph (NW)    
Max Wind Speed 6 mph    
Max Gust Speed -    
Visibility 10 miles    
Events      
Averages and records for this station are not official NWS values.
T = Trace of Precipitation, MM = Missing Value Source: NWS Daily Summary

Daily Weather History Graph

Daily Weather History Graph

Search for Another Location

Airport or City:

Trip Planner

Search our weather history database for the weather conditions in past years. The results will help you decide how hot, cold, wet, or windy it might be!

Date:

Astronomy

Aug. 05, 2013 Rise Set
Actual Time 6:12 AM EDT 8:18 PM EDT
Civil Twilight 5:43 AM EDT 8:47 PM EDT
Nautical Twilight 5:06 AM EDT 9:23 PM EDT
Astronomical Twilight 4:27 AM EDT 10:03 PM EDT
Moon 5:06 AM EDT (8/5) 7:17 PM EDT (8/5)
Length of Visible Light 15h 04m
Length of Day
14h 05m
Waning Crescent, 1% of the Moon is Illuminated
Aug 5
Waning Crescent
Aug 6
New
Aug 14
First Quarter
Aug 20
Full
Aug 28
Last Quarter

Hourly Weather History & Observations

Time (EDT) Temp. Dew Point Humidity Pressure Visibility Wind Dir Wind Speed Gust Speed Precip Events Conditions
12:54 AM 59.0 °F 50.0 °F 72% 30.09 in 10.0 mi North 5.8 mph - N/A   Clear
3:54 AM 57.9 °F 50.0 °F 75% 30.09 in 10.0 mi North 5.8 mph - N/A   Clear
4:54 AM 57.0 °F 48.9 °F 74% 30.09 in 10.0 mi Variable 4.6 mph - N/A   Clear
5:54 AM 55.9 °F 48.9 °F 77% 30.12 in 10.0 mi North 4.6 mph - N/A   Clear
6:54 AM 57.0 °F 50.0 °F 77% 30.13 in 10.0 mi North 3.5 mph - N/A   Clear
7:54 AM 60.1 °F 51.1 °F 72% 30.14 in 10.0 mi Calm Calm - N/A   Clear
8:54 AM 64.0 °F 52.0 °F 65% 30.14 in 10.0 mi Calm Calm - N/A   Clear
9:54 AM 63.0 °F 50.0 °F 63% 30.14 in 10.0 mi Calm Calm - N/A   Clear
10:54 AM 66.0 °F 51.1 °F 59% 30.14 in 10.0 mi Variable 3.5 mph - N/A   Clear
11:54 AM 68.0 °F 48.9 °F 50% 30.14 in 10.0 mi NW 5.8 mph - N/A   Partly Cloudy
12:54 PM 66.9 °F 48.0 °F 51% 30.13 in 10.0 mi Variable 4.6 mph - N/A   Partly Cloudy
1:54 PM 69.1 °F 46.9 °F 45% 30.11 in 10.0 mi Variable 5.8 mph - N/A   Partly Cloudy
2:54 PM 72.0 °F 51.1 °F 48% 30.09 in 10.0 mi Variable 4.6 mph - 0.01 in   Mostly Cloudy
3:54 PM 71.1 °F 50.0 °F 47% 30.08 in 10.0 mi Variable 5.8 mph - N/A   Mostly Cloudy
6:54 PM 68.0 °F 51.1 °F 55% 30.09 in 10.0 mi Calm Calm - N/A   Clear
7:54 PM 66.9 °F 52.0 °F 59% 30.09 in 10.0 mi SSW 3.5 mph - N/A   Clear
8:54 PM 64.0 °F 52.0 °F 65% 30.09 in 10.0 mi SSW 4.6 mph - N/A   Clear
9:54 PM 64.9 °F 50.0 °F 58% 30.09 in 10.0 mi South 4.6 mph - N/A   Clear
10:54 PM 66.0 °F 51.1 °F 59% 30.08 in 10.0 mi Variable 4.6 mph - N/A   Clear
11:54 PM 63.0 °F 51.1 °F 65% 30.07 in 10.0 mi SE 4.6 mph - N/A   Clear